User: anonymous   Login
Location: Unspecified
(0.0000°N, 0.0000°E)
Time: 10:05:39
(UTC+00:00)
Language:

TBA - TO BE ASSIGNED - Orbit

View from above orbital plane
View from above orbital plane
View from above satellite
View from above satellite

Ground track
Ground track

The orbit is defined by the following mean orbital elements,

1 68068U          26145.46392963 +.00000000 +00000-0 +75252-3 0 00005
2 68068  53.1594  53.1990 0001146  84.3198 275.7935 15.34403173    08
Epoch (UTC): 25 May 2026 11:08:03
Eccentricity: 0.0001146
inclination: 53.1594°
perigee height: 462 km
apogee height: 463 km
right ascension of ascending node: 53.1990°
argument of perigee: 84.3198°
revolutions per day: 15.34403173
mean anomaly at epoch: 275.7935°

The dashed part of the orbit path shows where the satellite is in the earth's shadow,  

DLR